Back to catalog

STARLINK-31840

AliveCommunicationsVLEO
NORAD 60127·PAYLOAD·🇺🇸 United States

Launched Jun 24, 2024 from Vandenberg Space Force Base

Loading…

Next Passes (next 24 hours)

TLE

FreshSource: CelesTrak SupGP

Epoch: Sep 14, 2026, 20:47 UTC

1 60127C 24118Q   26257.86645833  .00037792  00000+0  12149-2 0  2570
2 60127  53.1589 226.7486 0001448  95.3564  62.0267 15.31692090    13

Track STARLINK-31840 in real time with AllMySat

Download on the App Store